owner,sensor,date,latitude,longitude,sea_surface_height_above_sea_level,qcFlag 
TCOON,ioos:station:TCOON:057:1,2017-04-01T00:18:00Z,28.4460,-96.3961,3.805,1111122 
TCOON,ioos:station:TCOON:057:1,2017-04-01T01:24:00Z,28.4460,-96.3961,3.775,1111122 
TCOON,ioos:station:TCOON:057:1,2017-04-01T02:18:00Z,28.4460,-96.3961,3.763,1111122 
TCOON,ioos:station:TCOON:057:1,2017-04-01T03:18:00Z,28.4460,-96.3961,3.731,1111122 
TCOON,ioos:station:TCOON:057:1,2017-04-01T04:18:00Z,28.4460,-96.3961,3.709,1111122 
TCOON,ioos:station:TCOON:057:1,2017-04-01T05:18:00Z,28.4460,-96.3961,3.693,1111122 
TCOON,ioos:station:TCOON:057:1,2017-04-01T06:18:00Z,28.4460,-96.3961,3.679,1111122 
TCOON,ioos:station:TCOON:057:1,2017-04-01T07:18:00Z,28.4460,-96.3961,3.64,1111122 
TCOON,ioos:station:TCOON:057:1,2017-04-01T08:24:00Z,28.4460,-96.3961,3.655,1111122 
TCOON,ioos:station:TCOON:057:1,2017-04-01T09:18:00Z,28.4460,-96.3961,3.685,1111122 
TCOON,ioos:station:TCOON:057:1,2017-04-01T10:18:00Z,28.4460,-96.3961,3.737,1111122 
TCOON,ioos:station:TCOON:057:1,2017-04-01T11:18:00Z,28.4460,-96.3961,3.781,1111122 
TCOON,ioos:station:TCOON:057:1,2017-04-01T12:18:00Z,28.4460,-96.3961,3.811,1111122 
TCOON,ioos:station:TCOON:057:1,2017-04-01T13:18:00Z,28.4460,-96.3961,3.864,1111122 
TCOON,ioos:station:TCOON:057:1,2017-04-01T14:18:00Z,28.4460,-96.3961,3.893,1111122 
TCOON,ioos:station:TCOON:057:1,2017-04-01T15:18:00Z,28.4460,-96.3961,3.93,1111122 
TCOON,ioos:station:TCOON:057:1,2017-04-01T16:18:00Z,28.4460,-96.3961,3.956,1111122 
TCOON,ioos:station:TCOON:057:1,2017-04-01T17:18:00Z,28.4460,-96.3961,3.964,1111122 
TCOON,ioos:station:TCOON:057:1,2017-04-01T18:24:00Z,28.4460,-96.3961,3.986,1111122 
TCOON,ioos:station:TCOON:057:1,2017-04-01T19:18:00Z,28.4460,-96.3961,3.984,1111122 
TCOON,ioos:station:TCOON:057:1,2017-04-01T20:18:00Z,28.4460,-96.3961,3.978,1111122 
TCOON,ioos:station:TCOON:057:1,2017-04-01T21:18:00Z,28.4460,-96.3961,3.981,1111122 
TCOON,ioos:station:TCOON:057:1,2017-04-01T22:18:00Z,28.4460,-96.3961,3.979,1111122 
TCOON,ioos:station:TCOON:057:1,2017-04-01T23:18:00Z,28.4460,-96.3961,3.97,1111122 
TCOON,ioos:station:TCOON:057:1,2017-04-02T00:18:00Z,28.4460,-96.3961,3.956,1111122 
TCOON,ioos:station:TCOON:057:1,2017-04-02T01:18:00Z,28.4460,-96.3961,3.949,1111122 
TCOON,ioos:station:TCOON:057:1,2017-04-02T02:18:00Z,28.4460,-96.3961,3.912,1111122 
TCOON,ioos:station:TCOON:057:1,2017-04-02T03:18:00Z,28.4460,-96.3961,3.866,1111122 
TCOON,ioos:station:TCOON:057:1,2017-04-02T04:18:00Z,28.4460,-96.3961,3.843,1111122 
TCOON,ioos:station:TCOON:057:1,2017-04-02T05:24:00Z,28.4460,-96.3961,3.801,1111122 
TCOON,ioos:station:TCOON:057:1,2017-04-02T06:24:00Z,28.4460,-96.3961,3.778,1111122 
TCOON,ioos:station:TCOON:057:1,2017-04-02T07:18:00Z,28.4460,-96.3961,3.751,1111122 
TCOON,ioos:station:TCOON:057:1,2017-04-02T08:24:00Z,28.4460,-96.3961,3.737,1111122 
TCOON,ioos:station:TCOON:057:1,2017-04-02T09:18:00Z,28.4460,-96.3961,3.729,1111122 
TCOON,ioos:station:TCOON:057:1,2017-04-02T10:18:00Z,28.4460,-96.3961,3.766,1111122 
TCOON,ioos:station:TCOON:057:1,2017-04-02T11:18:00Z,28.4460,-96.3961,3.796,1111122 
TCOON,ioos:station:TCOON:057:1,2017-04-02T12:18:00Z,28.4460,-96.3961,3.814,1111122 
TCOON,ioos:station:TCOON:057:1,2017-04-02T13:18:00Z,28.4460,-96.3961,3.862,1111122 
TCOON,ioos:station:TCOON:057:1,2017-04-02T14:18:00Z,28.4460,-96.3961,3.901,1111122 
TCOON,ioos:station:TCOON:057:1,2017-04-02T15:24:00Z,28.4460,-96.3961,3.94,1111122 
TCOON,ioos:station:TCOON:057:1,2017-04-02T16:18:00Z,28.4460,-96.3961,3.956,1111122 
TCOON,ioos:station:TCOON:057:1,2017-04-02T17:18:00Z,28.4460,-96.3961,4.001,1111122 
TCOON,ioos:station:TCOON:057:1,2017-04-02T18:18:00Z,28.4460,-96.3961,4.015,1111122 
TCOON,ioos:station:TCOON:057:1,2017-04-02T19:18:00Z,28.4460,-96.3961,4.038,1111122 
TCOON,ioos:station:TCOON:057:1,2017-04-02T20:18:00Z,28.4460,-96.3961,4.063,1111122 
TCOON,ioos:station:TCOON:057:1,2017-04-02T21:18:00Z,28.4460,-96.3961,4.073,1111122 
TCOON,ioos:station:TCOON:057:1,2017-04-02T22:18:00Z,28.4460,-96.3961,4.073,1111122 
TCOON,ioos:station:TCOON:057:1,2017-04-02T23:18:00Z,28.4460,-96.3961,4.071,1111122 
TCOON,ioos:station:TCOON:057:1,2017-04-03T00:18:00Z,28.4460,-96.3961,4.067,1111122 
TCOON,ioos:station:TCOON:057:1,2017-04-03T01:18:00Z,28.4460,-96.3961,4.048,1111122 
TCOON,ioos:station:TCOON:057:1,2017-04-03T02:18:00Z,28.4460,-96.3961,4.018,1111122 
TCOON,ioos:station:TCOON:057:1,2017-04-03T03:18:00Z,28.4460,-96.3961,3.98,1111122 
TCOON,ioos:station:TCOON:057:1,2017-04-03T04:18:00Z,28.4460,-96.3961,3.956,1111122 
TCOON,ioos:station:TCOON:057:1,2017-04-03T05:24:00Z,28.4460,-96.3961,3.944,1111122 
TCOON,ioos:station:TCOON:057:1,2017-04-03T06:18:00Z,28.4460,-96.3961,3.919,1111122 
TCOON,ioos:station:TCOON:057:1,2017-04-03T07:18:00Z,28.4460,-96.3961,3.879,1111122 
TCOON,ioos:station:TCOON:057:1,2017-04-03T08:18:00Z,28.4460,-96.3961,3.853,1111122 
TCOON,ioos:station:TCOON:057:1,2017-04-03T09:18:00Z,28.4460,-96.3961,3.797,1111122 
TCOON,ioos:station:TCOON:057:1,2017-04-03T10:18:00Z,28.4460,-96.3961,3.754,1111122 
TCOON,ioos:station:TCOON:057:1,2017-04-03T11:18:00Z,28.4460,-96.3961,3.747,1111122 
TCOON,ioos:station:TCOON:057:1,2017-04-03T13:24:00Z,28.4460,-96.3961,3.749,1111122 
TCOON,ioos:station:TCOON:057:1,2017-04-03T14:18:00Z,28.4460,-96.3961,3.759,1111122 
TCOON,ioos:station:TCOON:057:1,2017-04-03T15:18:00Z,28.4460,-96.3961,3.776,1111122 
TCOON,ioos:station:TCOON:057:1,2017-04-03T16:18:00Z,28.4460,-96.3961,3.786,1111122 
TCOON,ioos:station:TCOON:057:1,2017-04-03T17:18:00Z,28.4460,-96.3961,3.812,1111122 
TCOON,ioos:station:TCOON:057:1,2017-04-03T18:18:00Z,28.4460,-96.3961,3.828,1111122 
TCOON,ioos:station:TCOON:057:1,2017-04-03T19:18:00Z,28.4460,-96.3961,3.854,1111122 
TCOON,ioos:station:TCOON:057:1,2017-04-03T20:18:00Z,28.4460,-96.3961,3.874,1111122 
TCOON,ioos:station:TCOON:057:1,2017-04-03T21:18:00Z,28.4460,-96.3961,3.863,1111122 
TCOON,ioos:station:TCOON:057:1,2017-04-03T22:18:00Z,28.4460,-96.3961,3.854,1111122 
TCOON,ioos:station:TCOON:057:1,2017-04-04T00:18:00Z,28.4460,-96.3961,3.863,1111122 
TCOON,ioos:station:TCOON:057:1,2017-04-04T01:18:00Z,28.4460,-96.3961,3.839,1111122 
TCOON,ioos:station:TCOON:057:1,2017-04-04T02:18:00Z,28.4460,-96.3961,3.81,1111122 
TCOON,ioos:station:TCOON:057:1,2017-04-04T03:18:00Z,28.4460,-96.3961,3.791,1111122 
TCOON,ioos:station:TCOON:057:1,2017-04-04T04:18:00Z,28.4460,-96.3961,3.762,1111122 
TCOON,ioos:station:TCOON:057:1,2017-04-04T05:18:00Z,28.4460,-96.3961,3.727,1111122 
TCOON,ioos:station:TCOON:057:1,2017-04-04T06:18:00Z,28.4460,-96.3961,3.709,1111122 
TCOON,ioos:station:TCOON:057:1,2017-04-04T07:18:00Z,28.4460,-96.3961,3.671,1111122 
TCOON,ioos:station:TCOON:057:1,2017-04-04T08:18:00Z,28.4460,-96.3961,3.625,1111122 
TCOON,ioos:station:TCOON:057:1,2017-04-04T09:24:00Z,28.4460,-96.3961,3.612,1111122 
TCOON,ioos:station:TCOON:057:1,2017-04-04T10:18:00Z,28.4460,-96.3961,3.599,1111122 
TCOON,ioos:station:TCOON:057:1,2017-04-04T11:18:00Z,28.4460,-96.3961,3.59,1111122 
TCOON,ioos:station:TCOON:057:1,2017-04-04T12:24:00Z,28.4460,-96.3961,3.57,1111122 
TCOON,ioos:station:TCOON:057:1,2017-04-04T13:24:00Z,28.4460,-96.3961,3.585,1111122 
TCOON,ioos:station:TCOON:057:1,2017-04-04T14:18:00Z,28.4460,-96.3961,3.603,1111122 
TCOON,ioos:station:TCOON:057:1,2017-04-04T15:18:00Z,28.4460,-96.3961,3.63,1111122 
TCOON,ioos:station:TCOON:057:1,2017-04-04T16:18:00Z,28.4460,-96.3961,3.641,1111122 
TCOON,ioos:station:TCOON:057:1,2017-04-04T17:18:00Z,28.4460,-96.3961,3.681,1111122 
TCOON,ioos:station:TCOON:057:1,2017-04-04T18:18:00Z,28.4460,-96.3961,3.715,1111122 
TCOON,ioos:station:TCOON:057:1,2017-04-04T19:24:00Z,28.4460,-96.3961,3.755,1111122 
TCOON,ioos:station:TCOON:057:1,2017-04-04T20:24:00Z,28.4460,-96.3961,3.79,1111122 
TCOON,ioos:station:TCOON:057:1,2017-04-04T21:24:00Z,28.4460,-96.3961,3.808,1111122 
TCOON,ioos:station:TCOON:057:1,2017-04-04T22:18:00Z,28.4460,-96.3961,3.822,1111122 
TCOON,ioos:station:TCOON:057:1,2017-04-06T14:18:00Z,28.4460,-96.3961,3.368,1111122 
TCOON,ioos:station:TCOON:057:1,2017-04-06T15:18:00Z,28.4460,-96.3961,3.369,1111122 
TCOON,ioos:station:TCOON:057:1,2017-04-06T16:18:00Z,28.4460,-96.3961,3.363,1111122 
TCOON,ioos:station:TCOON:057:1,2017-04-06T17:18:00Z,28.4460,-96.3961,3.389,1111122 
TCOON,ioos:station:TCOON:057:1,2017-04-06T18:18:00Z,28.4460,-96.3961,3.392,1111122 
TCOON,ioos:station:TCOON:057:1,2017-04-06T19:18:00Z,28.4460,-96.3961,3.424,1111122 
TCOON,ioos:station:TCOON:057:1,2017-04-06T20:18:00Z,28.4460,-96.3961,3.456,1111122 
TCOON,ioos:station:TCOON:057:1,2017-04-06T21:18:00Z,28.4460,-96.3961,3.473,1111122 
TCOON,ioos:station:TCOON:057:1,2017-04-06T22:18:00Z,28.4460,-96.3961,3.503,1111122 
TCOON,ioos:station:TCOON:057:1,2017-04-06T23:18:00Z,28.4460,-96.3961,3.52,1111122 
TCOON,ioos:station:TCOON:057:1,2017-04-07T00:18:00Z,28.4460,-96.3961,3.522,1111122 
TCOON,ioos:station:TCOON:057:1,2017-04-07T01:18:00Z,28.4460,-96.3961,3.515,1111122 
TCOON,ioos:station:TCOON:057:1,2017-04-07T02:18:00Z,28.4460,-96.3961,3.513,1111122 
TCOON,ioos:station:TCOON:057:1,2017-04-07T03:18:00Z,28.4460,-96.3961,3.503,1111122 
TCOON,ioos:station:TCOON:057:1,2017-04-07T04:18:00Z,28.4460,-96.3961,3.523,1111122 
TCOON,ioos:station:TCOON:057:1,2017-04-07T05:18:00Z,28.4460,-96.3961,3.537,1111122 
TCOON,ioos:station:TCOON:057:1,2017-04-07T06:24:00Z,28.4460,-96.3961,3.535,1111122 
TCOON,ioos:station:TCOON:057:1,2017-04-07T07:18:00Z,28.4460,-96.3961,3.533,1111122 
TCOON,ioos:station:TCOON:057:1,2017-04-07T08:18:00Z,28.4460,-96.3961,3.52,1111122 
TCOON,ioos:station:TCOON:057:1,2017-04-07T09:18:00Z,28.4460,-96.3961,3.509,1111122 
TCOON,ioos:station:TCOON:057:1,2017-04-07T10:18:00Z,28.4460,-96.3961,3.489,1111122 
TCOON,ioos:station:TCOON:057:1,2017-04-07T11:18:00Z,28.4460,-96.3961,3.474,1111122 
TCOON,ioos:station:TCOON:057:1,2017-04-07T12:18:00Z,28.4460,-96.3961,3.461,1111122 
TCOON,ioos:station:TCOON:057:1,2017-04-07T13:18:00Z,28.4460,-96.3961,3.462,1111122 
TCOON,ioos:station:TCOON:057:1,2017-04-07T14:18:00Z,28.4460,-96.3961,3.449,1111122 
TCOON,ioos:station:TCOON:057:1,2017-04-07T15:18:00Z,28.4460,-96.3961,3.43,1111122 
TCOON,ioos:station:TCOON:057:1,2017-04-07T16:18:00Z,28.4460,-96.3961,3.439,1111122 
TCOON,ioos:station:TCOON:057:1,2017-04-07T17:18:00Z,28.4460,-96.3961,3.433,1111122 
TCOON,ioos:station:TCOON:057:1,2017-04-07T18:18:00Z,28.4460,-96.3961,3.465,1111122 
TCOON,ioos:station:TCOON:057:1,2017-04-07T19:18:00Z,28.4460,-96.3961,3.48,1111122 
TCOON,ioos:station:TCOON:057:1,2017-04-07T20:18:00Z,28.4460,-96.3961,3.51,1111122 
TCOON,ioos:station:TCOON:057:1,2017-04-07T21:24:00Z,28.4460,-96.3961,3.536,1111122 
TCOON,ioos:station:TCOON:057:1,2017-04-07T22:18:00Z,28.4460,-96.3961,3.56,1111122 
TCOON,ioos:station:TCOON:057:1,2017-04-07T23:18:00Z,28.4460,-96.3961,3.548,1111122 
TCOON,ioos:station:TCOON:057:1,2017-04-08T00:18:00Z,28.4460,-96.3961,3.549,1111122 
TCOON,ioos:station:TCOON:057:1,2017-04-08T01:18:00Z,28.4460,-96.3961,3.534,1111122 
TCOON,ioos:station:TCOON:057:1,2017-04-08T02:18:00Z,28.4460,-96.3961,3.517,1111122 
TCOON,ioos:station:TCOON:057:1,2017-04-08T03:18:00Z,28.4460,-96.3961,3.523,1111122 
TCOON,ioos:station:TCOON:057:1,2017-04-08T04:18:00Z,28.4460,-96.3961,3.526,1111122 
TCOON,ioos:station:TCOON:057:1,2017-04-08T05:18:00Z,28.4460,-96.3961,3.513,1111122 
TCOON,ioos:station:TCOON:057:1,2017-04-08T06:18:00Z,28.4460,-96.3961,3.541,1111122 
TCOON,ioos:station:TCOON:057:1,2017-04-08T07:18:00Z,28.4460,-96.3961,3.552,1111122 
TCOON,ioos:station:TCOON:057:1,2017-04-08T08:18:00Z,28.4460,-96.3961,3.553,1111122 
TCOON,ioos:station:TCOON:057:1,2017-04-08T09:18:00Z,28.4460,-96.3961,3.552,1111122 
TCOON,ioos:station:TCOON:057:1,2017-04-08T10:18:00Z,28.4460,-96.3961,3.552,1111122 
TCOON,ioos:station:TCOON:057:1,2017-04-08T11:18:00Z,28.4460,-96.3961,3.536,1111122 
TCOON,ioos:station:TCOON:057:1,2017-04-08T12:18:00Z,28.4460,-96.3961,3.529,1111122 
TCOON,ioos:station:TCOON:057:1,2017-04-08T13:18:00Z,28.4460,-96.3961,3.518,1111122 
TCOON,ioos:station:TCOON:057:1,2017-04-08T14:18:00Z,28.4460,-96.3961,3.48,1111122 
TCOON,ioos:station:TCOON:057:1,2017-04-08T15:18:00Z,28.4460,-96.3961,3.454,1111122 
TCOON,ioos:station:TCOON:057:1,2017-04-08T16:18:00Z,28.4460,-96.3961,3.439,1111122 
TCOON,ioos:station:TCOON:057:1,2017-04-08T17:18:00Z,28.4460,-96.3961,3.477,1111122 
TCOON,ioos:station:TCOON:057:1,2017-04-08T18:18:00Z,28.4460,-96.3961,3.5,1111122 
TCOON,ioos:station:TCOON:057:1,2017-04-08T19:18:00Z,28.4460,-96.3961,3.516,1111122 
TCOON,ioos:station:TCOON:057:1,2017-04-08T20:18:00Z,28.4460,-96.3961,3.543,1111122 
TCOON,ioos:station:TCOON:057:1,2017-04-08T21:18:00Z,28.4460,-96.3961,3.558,1111122 
TCOON,ioos:station:TCOON:057:1,2017-04-08T22:18:00Z,28.4460,-96.3961,3.571,1111122 
TCOON,ioos:station:TCOON:057:1,2017-04-08T23:18:00Z,28.4460,-96.3961,3.578,1111122 
TCOON,ioos:station:TCOON:057:1,2017-04-09T00:18:00Z,28.4460,-96.3961,3.575,1111122 
TCOON,ioos:station:TCOON:057:1,2017-04-09T01:18:00Z,28.4460,-96.3961,3.557,1111122 
TCOON,ioos:station:TCOON:057:1,2017-04-09T02:18:00Z,28.4460,-96.3961,3.539,1111122 
TCOON,ioos:station:TCOON:057:1,2017-04-09T03:18:00Z,28.4460,-96.3961,3.533,1111122 
TCOON,ioos:station:TCOON:057:1,2017-04-09T04:18:00Z,28.4460,-96.3961,3.529,1111122 
TCOON,ioos:station:TCOON:057:1,2017-04-09T05:18:00Z,28.4460,-96.3961,3.544,1111122 
TCOON,ioos:station:TCOON:057:1,2017-04-09T06:18:00Z,28.4460,-96.3961,3.548,1111122 
TCOON,ioos:station:TCOON:057:1,2017-04-09T07:18:00Z,28.4460,-96.3961,3.571,1111122 
TCOON,ioos:station:TCOON:057:1,2017-04-09T08:18:00Z,28.4460,-96.3961,3.591,1111122 
TCOON,ioos:station:TCOON:057:1,2017-04-09T09:18:00Z,28.4460,-96.3961,3.609,1111122 
TCOON,ioos:station:TCOON:057:1,2017-04-09T10:18:00Z,28.4460,-96.3961,3.623,1111122 
TCOON,ioos:station:TCOON:057:1,2017-04-09T11:18:00Z,28.4460,-96.3961,3.621,1111122 
TCOON,ioos:station:TCOON:057:1,2017-04-09T12:18:00Z,28.4460,-96.3961,3.611,1111122 
TCOON,ioos:station:TCOON:057:1,2017-04-09T13:18:00Z,28.4460,-96.3961,3.603,1111122 
TCOON,ioos:station:TCOON:057:1,2017-04-09T14:12:00Z,28.4460,-96.3961,3.591,1111122 
TCOON,ioos:station:TCOON:057:1,2017-04-09T15:18:00Z,28.4460,-96.3961,3.566,1111122 
TCOON,ioos:station:TCOON:057:1,2017-04-09T16:18:00Z,28.4460,-96.3961,3.555,1111122 
TCOON,ioos:station:TCOON:057:1,2017-04-09T17:18:00Z,28.4460,-96.3961,3.556,1111122 
TCOON,ioos:station:TCOON:057:1,2017-04-09T18:18:00Z,28.4460,-96.3961,3.556,1111122 
TCOON,ioos:station:TCOON:057:1,2017-04-09T19:12:00Z,28.4460,-96.3961,3.576,1111122 
TCOON,ioos:station:TCOON:057:1,2017-04-09T20:18:00Z,28.4460,-96.3961,3.592,1111122 
TCOON,ioos:station:TCOON:057:1,2017-04-09T21:18:00Z,28.4460,-96.3961,3.61,1111122 
TCOON,ioos:station:TCOON:057:1,2017-04-09T22:18:00Z,28.4460,-96.3961,3.619,1111122 
TCOON,ioos:station:TCOON:057:1,2017-04-09T23:18:00Z,28.4460,-96.3961,3.624,1111122 
TCOON,ioos:station:TCOON:057:1,2017-04-10T00:12:00Z,28.4460,-96.3961,3.63,1111122 
TCOON,ioos:station:TCOON:057:1,2017-04-10T01:18:00Z,28.4460,-96.3961,3.614,1111122 
TCOON,ioos:station:TCOON:057:1,2017-04-10T02:18:00Z,28.4460,-96.3961,3.612,1111122 
TCOON,ioos:station:TCOON:057:1,2017-04-10T03:18:00Z,28.4460,-96.3961,3.596,1111122 
TCOON,ioos:station:TCOON:057:1,2017-04-10T04:18:00Z,28.4460,-96.3961,3.598,1111122 
TCOON,ioos:station:TCOON:057:1,2017-04-10T05:18:00Z,28.4460,-96.3961,3.601,1111122 
TCOON,ioos:station:TCOON:057:1,2017-04-10T06:18:00Z,28.4460,-96.3961,3.609,1111122 
TCOON,ioos:station:TCOON:057:1,2017-04-10T07:18:00Z,28.4460,-96.3961,3.656,1111122 
TCOON,ioos:station:TCOON:057:1,2017-04-10T08:18:00Z,28.4460,-96.3961,3.689,1111122 
TCOON,ioos:station:TCOON:057:1,2017-04-10T09:18:00Z,28.4460,-96.3961,3.706,1111122 
TCOON,ioos:station:TCOON:057:1,2017-04-10T10:18:00Z,28.4460,-96.3961,3.721,1111122 
TCOON,ioos:station:TCOON:057:1,2017-04-10T11:18:00Z,28.4460,-96.3961,3.727,1111122 
TCOON,ioos:station:TCOON:057:1,2017-04-10T12:18:00Z,28.4460,-96.3961,3.728,1111122 
TCOON,ioos:station:TCOON:057:1,2017-04-10T13:18:00Z,28.4460,-96.3961,3.721,1111122 
TCOON,ioos:station:TCOON:057:1,2017-04-10T14:18:00Z,28.4460,-96.3961,3.718,1111122 
TCOON,ioos:station:TCOON:057:1,2017-04-10T15:18:00Z,28.4460,-96.3961,3.7,1111122 
TCOON,ioos:station:TCOON:057:1,2017-04-10T16:18:00Z,28.4460,-96.3961,3.687,1111122 
TCOON,ioos:station:TCOON:057:1,2017-04-10T17:18:00Z,28.4460,-96.3961,3.675,1111122 
TCOON,ioos:station:TCOON:057:1,2017-04-10T18:18:00Z,28.4460,-96.3961,3.681,1111122 
TCOON,ioos:station:TCOON:057:1,2017-04-10T20:18:00Z,28.4460,-96.3961,3.683,1111122 
TCOON,ioos:station:TCOON:057:1,2017-04-10T21:18:00Z,28.4460,-96.3961,3.691,1111122 
TCOON,ioos:station:TCOON:057:1,2017-04-10T22:18:00Z,28.4460,-96.3961,3.682,1111122 
TCOON,ioos:station:TCOON:057:1,2017-04-10T23:18:00Z,28.4460,-96.3961,3.676,1111122 
TCOON,ioos:station:TCOON:057:1,2017-04-11T00:18:00Z,28.4460,-96.3961,3.663,1111122 
TCOON,ioos:station:TCOON:057:1,2017-04-11T01:18:00Z,28.4460,-96.3961,3.648,1111122 
TCOON,ioos:station:TCOON:057:1,2017-04-11T02:18:00Z,28.4460,-96.3961,3.637,1111122 
TCOON,ioos:station:TCOON:057:1,2017-04-11T03:18:00Z,28.4460,-96.3961,3.606,1111122 
TCOON,ioos:station:TCOON:057:1,2017-04-11T04:18:00Z,28.4460,-96.3961,3.607,1111122 
TCOON,ioos:station:TCOON:057:1,2017-04-11T05:18:00Z,28.4460,-96.3961,3.609,1111122 
TCOON,ioos:station:TCOON:057:1,2017-04-11T06:18:00Z,28.4460,-96.3961,3.621,1111122 
TCOON,ioos:station:TCOON:057:1,2017-04-11T07:18:00Z,28.4460,-96.3961,3.653,1111122 
TCOON,ioos:station:TCOON:057:1,2017-04-11T08:18:00Z,28.4460,-96.3961,3.678,1111122 
TCOON,ioos:station:TCOON:057:1,2017-04-11T09:18:00Z,28.4460,-96.3961,3.696,1111122 
TCOON,ioos:station:TCOON:057:1,2017-04-11T10:18:00Z,28.4460,-96.3961,3.721,1111122 
TCOON,ioos:station:TCOON:057:1,2017-04-11T11:18:00Z,28.4460,-96.3961,3.73,1111122 
TCOON,ioos:station:TCOON:057:1,2017-04-11T12:12:00Z,28.4460,-96.3961,3.762,1111122 
TCOON,ioos:station:TCOON:057:1,2017-04-11T13:18:00Z,28.4460,-96.3961,3.774,1111122 
TCOON,ioos:station:TCOON:057:1,2017-04-11T14:18:00Z,28.4460,-96.3961,3.769,1111122 
TCOON,ioos:station:TCOON:057:1,2017-04-11T15:18:00Z,28.4460,-96.3961,3.786,1111122 
TCOON,ioos:station:TCOON:057:1,2017-04-11T16:18:00Z,28.4460,-96.3961,3.753,1111122 
TCOON,ioos:station:TCOON:057:1,2017-04-11T17:18:00Z,28.4460,-96.3961,3.759,1111122 
TCOON,ioos:station:TCOON:057:1,2017-04-11T18:18:00Z,28.4460,-96.3961,3.752,1111122 
TCOON,ioos:station:TCOON:057:1,2017-04-11T19:18:00Z,28.4460,-96.3961,3.774,1111122 
TCOON,ioos:station:TCOON:057:1,2017-04-11T20:18:00Z,28.4460,-96.3961,3.768,1111122 
TCOON,ioos:station:TCOON:057:1,2017-04-11T21:18:00Z,28.4460,-96.3961,3.836,1111122 
TCOON,ioos:station:TCOON:057:1,2017-04-11T22:18:00Z,28.4460,-96.3961,3.886,1111122 
TCOON,ioos:station:TCOON:057:1,2017-04-11T23:18:00Z,28.4460,-96.3961,3.806,1111122 
TCOON,ioos:station:TCOON:057:1,2017-04-12T00:18:00Z,28.4460,-96.3961,3.663,1111122 
TCOON,ioos:station:TCOON:057:1,2017-04-12T01:18:00Z,28.4460,-96.3961,3.403,1111122 
TCOON,ioos:station:TCOON:057:1,2017-04-12T02:18:00Z,28.4460,-96.3961,3.801,1111122 
TCOON,ioos:station:TCOON:057:1,2017-04-12T03:18:00Z,28.4460,-96.3961,3.698,1111122 
TCOON,ioos:station:TCOON:057:1,2017-04-12T04:18:00Z,28.4460,-96.3961,3.703,1111122 
TCOON,ioos:station:TCOON:057:1,2017-04-12T05:18:00Z,28.4460,-96.3961,3.71,1111122 
TCOON,ioos:station:TCOON:057:1,2017-04-12T06:18:00Z,28.4460,-96.3961,3.663,1111122 
TCOON,ioos:station:TCOON:057:1,2017-04-12T07:18:00Z,28.4460,-96.3961,3.723,1111122 
TCOON,ioos:station:TCOON:057:1,2017-04-12T08:18:00Z,28.4460,-96.3961,3.768,1111122 
TCOON,ioos:station:TCOON:057:1,2017-04-12T09:18:00Z,28.4460,-96.3961,3.82,1111122 
TCOON,ioos:station:TCOON:057:1,2017-04-12T10:18:00Z,28.4460,-96.3961,3.826,1111122 
TCOON,ioos:station:TCOON:057:1,2017-04-12T11:18:00Z,28.4460,-96.3961,3.849,1111122 
TCOON,ioos:station:TCOON:057:1,2017-04-12T12:18:00Z,28.4460,-96.3961,3.838,1111122 
TCOON,ioos:station:TCOON:057:1,2017-04-12T13:18:00Z,28.4460,-96.3961,3.806,1111122 
TCOON,ioos:station:TCOON:057:1,2017-04-12T14:18:00Z,28.4460,-96.3961,3.845,1111122 
TCOON,ioos:station:TCOON:057:1,2017-04-12T15:18:00Z,28.4460,-96.3961,3.851,1111122 
TCOON,ioos:station:TCOON:057:1,2017-04-12T16:18:00Z,28.4460,-96.3961,3.843,1111122 
TCOON,ioos:station:TCOON:057:1,2017-04-12T17:18:00Z,28.4460,-96.3961,3.792,1111122 
TCOON,ioos:station:TCOON:057:1,2017-04-12T18:18:00Z,28.4460,-96.3961,3.79,1111122 
TCOON,ioos:station:TCOON:057:1,2017-04-12T19:18:00Z,28.4460,-96.3961,3.798,1111122 
TCOON,ioos:station:TCOON:057:1,2017-04-12T20:18:00Z,28.4460,-96.3961,3.786,1111122 
TCOON,ioos:station:TCOON:057:1,2017-04-12T21:18:00Z,28.4460,-96.3961,3.767,1111122 
TCOON,ioos:station:TCOON:057:1,2017-04-12T22:18:00Z,28.4460,-96.3961,3.742,1111122 
TCOON,ioos:station:TCOON:057:1,2017-04-12T23:18:00Z,28.4460,-96.3961,3.728,1111122 
TCOON,ioos:station:TCOON:057:1,2017-04-13T00:18:00Z,28.4460,-96.3961,3.716,1111122 
TCOON,ioos:station:TCOON:057:1,2017-04-13T01:18:00Z,28.4460,-96.3961,3.69,1111122 
TCOON,ioos:station:TCOON:057:1,2017-04-13T02:12:00Z,28.4460,-96.3961,3.69,1111122 
TCOON,ioos:station:TCOON:057:1,2017-04-13T03:18:00Z,28.4460,-96.3961,3.665,1111122 
TCOON,ioos:station:TCOON:057:1,2017-04-13T04:18:00Z,28.4460,-96.3961,3.623,1111122 
TCOON,ioos:station:TCOON:057:1,2017-04-13T05:18:00Z,28.4460,-96.3961,3.604,1111122 
TCOON,ioos:station:TCOON:057:1,2017-04-13T06:18:00Z,28.4460,-96.3961,3.601,1111122 
TCOON,ioos:station:TCOON:057:1,2017-04-13T07:18:00Z,28.4460,-96.3961,3.606,1111122 
TCOON,ioos:station:TCOON:057:1,2017-04-13T08:18:00Z,28.4460,-96.3961,3.626,1111122 
TCOON,ioos:station:TCOON:057:1,2017-04-13T09:18:00Z,28.4460,-96.3961,3.645,1111122 
TCOON,ioos:station:TCOON:057:1,2017-04-13T10:18:00Z,28.4460,-96.3961,3.672,1111122 
TCOON,ioos:station:TCOON:057:1,2017-04-13T11:18:00Z,28.4460,-96.3961,3.712,1111122 
TCOON,ioos:station:TCOON:057:1,2017-04-13T12:18:00Z,28.4460,-96.3961,3.742,1111122 
TCOON,ioos:station:TCOON:057:1,2017-04-13T13:18:00Z,28.4460,-96.3961,3.756,1111122 
TCOON,ioos:station:TCOON:057:1,2017-04-13T14:18:00Z,28.4460,-96.3961,3.779,1111122 
TCOON,ioos:station:TCOON:057:1,2017-04-13T15:18:00Z,28.4460,-96.3961,3.789,1111122 
TCOON,ioos:station:TCOON:057:1,2017-04-13T16:18:00Z,28.4460,-96.3961,3.799,1111122 
TCOON,ioos:station:TCOON:057:1,2017-04-13T17:18:00Z,28.4460,-96.3961,3.793,1111122 
TCOON,ioos:station:TCOON:057:1,2017-04-13T18:18:00Z,28.4460,-96.3961,3.796,1111122 
TCOON,ioos:station:TCOON:057:1,2017-04-13T19:18:00Z,28.4460,-96.3961,3.792,1111122 
TCOON,ioos:station:TCOON:057:1,2017-04-13T20:18:00Z,28.4460,-96.3961,3.779,1111122 
TCOON,ioos:station:TCOON:057:1,2017-04-13T21:18:00Z,28.4460,-96.3961,3.772,1111122 
TCOON,ioos:station:TCOON:057:1,2017-04-13T22:18:00Z,28.4460,-96.3961,3.772,1111122 
TCOON,ioos:station:TCOON:057:1,2017-04-13T23:18:00Z,28.4460,-96.3961,3.776,1111122 
TCOON,ioos:station:TCOON:057:1,2017-04-14T00:18:00Z,28.4460,-96.3961,3.761,1111122 
TCOON,ioos:station:TCOON:057:1,2017-04-14T01:18:00Z,28.4460,-96.3961,3.734,1111122 
TCOON,ioos:station:TCOON:057:1,2017-04-14T02:18:00Z,28.4460,-96.3961,3.712,1111122 
TCOON,ioos:station:TCOON:057:1,2017-04-14T03:18:00Z,28.4460,-96.3961,3.685,1111122 
TCOON,ioos:station:TCOON:057:1,2017-04-14T04:18:00Z,28.4460,-96.3961,3.672,1111122 
TCOON,ioos:station:TCOON:057:1,2017-04-14T05:18:00Z,28.4460,-96.3961,3.639,1111122 
TCOON,ioos:station:TCOON:057:1,2017-04-14T06:18:00Z,28.4460,-96.3961,3.63,1111122 
TCOON,ioos:station:TCOON:057:1,2017-04-14T07:18:00Z,28.4460,-96.3961,3.628,1111122 
TCOON,ioos:station:TCOON:057:1,2017-04-14T08:18:00Z,28.4460,-96.3961,3.654,1111122 
TCOON,ioos:station:TCOON:057:1,2017-04-14T09:18:00Z,28.4460,-96.3961,3.675,1111122 
TCOON,ioos:station:TCOON:057:1,2017-04-14T10:18:00Z,28.4460,-96.3961,3.699,1111122 
TCOON,ioos:station:TCOON:057:1,2017-04-14T11:18:00Z,28.4460,-96.3961,3.725,1111122 
TCOON,ioos:station:TCOON:057:1,2017-04-14T12:18:00Z,28.4460,-96.3961,3.752,1111122 
TCOON,ioos:station:TCOON:057:1,2017-04-14T13:18:00Z,28.4460,-96.3961,3.79,1111122 
TCOON,ioos:station:TCOON:057:1,2017-04-14T14:18:00Z,28.4460,-96.3961,3.813,1111122 